World > North America > United States > Oregon

Owyhee Corners, Oregon Regional Weather

Lat: 43.84N, Lon: 117.06W
Wx Zone: ORZ064Web Search

Helpful Tip: Type the letters wx in the search engine next time you need to find us.

Feedback


°F Click to change Owyhee Corners hourly weather to Imperial units.Click to change Owyhee Corners hourly weather to Metric units. °C
Owyhee Corners Weather Map
UTC Time: 5/5/2021, 22:28
Your Time:

Owyhee Corners, OR Regional Weather

Expires:202105052300;;653234
ASUS46 KPQR 052210
RWROR 

OREGON REGIONAL WEATHER ROUNDUP
NATIONAL WEATHER SERVICE PORTLAND OR
300 PM PDT WED MAY 05 2021

NOTE: "FAIR" INDICATES FEW OR NO CLOUDS BELOW 12,000 FEET WITH
NO SIGNIFICANT WEATHER AND/OR OBSTRUCTIONS TO VISIBILITY.


ORZ029>031-041-044-049-050-061>064-502-503-505>511-052300-
EASTERN OREGON

  
CITY           SKY/WX    TMP DP  RH WIND       PRES   REMARKS
MADRAS         SUNNY     77  36  22 N9G18     29.99F                  
REDMOND        MOSUNNY   82  22  11 S10       29.96F                  
BEND           MOSUNNY   81  14   8 S5G14     29.99F                  
PRINEVILLE     MOSUNNY   79  21  11 SE10G18   29.99F                  
KLAMATH FALLS  SUNNY     79  32  18 SW9       29.99F                  
LAKEVIEW       SUNNY     76  32  20 S10       30.06F                  
HERMISTON      MOSUNNY   81  32  17 NE15      30.01F                  
PENDLETON      SUNNY     78  34  20 NE10G16   30.02F                  
JOHN DAY       MOSUNNY   74  26  17 S15G23    30.09F                  
MEACHAM        SUNNY     72  29  20 E6        30.10F                  
LA GRANDE      SUNNY     75  29  18 SE20      30.09F                  
BAKER CITY     MOSUNNY   71  20  14 S13G24    30.13F                  
BURNS          SUNNY     74  16  11 SE10G25   30.10F                  
ROME             N/A     78   9   7 SE10G20   30.08F                  
ONTARIO        SUNNY     76  30  18 VRB6      30.13F                  
$$


OTHER REGIONAL REPORTS
  
CITY           SKY/WX    TMP DP  RH WIND       PRES   REMARKS
SEATTLE        CLOUDY    67  48  50 NW8       29.96F                  
SPOKANE        MOSUNNY   71  30  21 VRB3      30.13F                  
VANCOUVER BC   PTSUNNY   57  48  72 W14       30.02F                  
PRINCE GEORGE  SUNNY     59  28  31 VRB3      30.07F                  
DAWSON CREEK   MOSUNNY   61  25  25 E7        30.12F                  
WHITEHORSE     PTSUNNY   50  18  27 S12       30.01F                  
BOISE          SUNNY     75  10   8 S14G21    30.13F                  
REDDING        SUNNY     92  36  14 SE8       29.82F                  
SAN FRANCISCO  MOSUNNY   63  49  60 NW26      29.90S                  

$$

  

SKY/WX - Weather  TMP - Temperature  DP - Dew Point  RH - Relative Humidity
WIND - Wind Direction/Speed PRES - Barometric Pressure VSB - Visibility
WCI - Wind Chill Index E13G22 Wind - East Wind 13 mph/Gusts of 22 mph